ATLAS 5 CENTAUR DEB, 43994

Orbit data source: Space-Track

ATLAS 5 CENTAUR DEB, 43994 is space debris in HEO originally from a launch on Wed, 17 Sep 2014 UTC launched from the Air Force Eastern Test Range (AFETR). Debris objects in space refer to the collection of defunct objects orbiting the Earth. Examples of debris include non-operational satellites, rocket bodies, and fragments generated from explosions, collisions, or faulty payload assembly.

Loading next visibility...
Identifier
43994, 2014-055AZ
Orbit
HEO
Country
Flag of USUS
Related business
Flag of USUnited Launch Alliance/Lockheed Martin (US)
Manufacturer
Unknown
Mission
Spacecraft
Bus & Motor
Unknown
Mass
Unknown
Launch date (UTC)
2014-09-17 (11 years ago)
Launch vehicle
Unknown
Launch site
Air Force Eastern Test Range (AFETR)
Object type
Payload
Rocket body
Debris
Shape & HBR
Unknown shape, 1.1 m
Radar Cross Section
RCS unknown

Expand to show TLE details & history
Last TLE update: 3 days ago

TLE from 3 days ago
0 ATLAS 5 CENTAUR DEB
1 43994U 14055AZ  26070.93498473 -.00000011  00000-0  00000+0 0  9998
2 43994  19.3701 187.7098 4649731  90.6039 320.8056  1.80977463 49061
Epoch: 2026-03-11T22:26Z
TLE epoch observation values (Epoch: 2026-03-11T22:26:22.680Z)
Latitude
-0.00001°
Longitude
41.46875°
Altitude
16,054.906 km
Speed
4.639 km/s
True Right ascension
12h 30m 37s
True Declination
0° 00' 00"
Sunlit
Object was in full shadow at epoch
Visualization orbit readout
Latitude
Unknown
Longitude
Unknown
Altitude
Unknown
Speed
Unknown
Apparent Right ascension
Unknown
Apparent Declination
Unknown
Sunlit
N/A
Visualization observer readout
Local Sidereal Time
18:09:43
Azimuth
Unknown
Elevation
Unknown
Doppler factor
Unknown
Orbital elements
Apogee altitude
35,293.818 km
Perigee altitude
8,840.994 km
Semi-major axis
28,445.543 km
Eccentricity
0.46497
Inclination
19.3701°
RAAN
187.7098°
Arg. of periapsis
90.6039°
True anomaly
269.29957°
Mean anomaly
320.8056°
Eccentric anomaly
297.08661°
Mean motion
0.4524 °/min
Orbital period
795.76 mins
BSTAR
0
Loading maneuver chart data...
Computing Atmospheric mass density...

Documentation

Showing up to 5 results
|